Year,Month,Day,Hour,Minute,Value (Times are PST for temperature in C)
2013,10,16,00,00,6.30
2013,10,16,00,01,6.30
2013,10,16,00,02,6.30
2013,10,16,00,03,6.30
2013,10,16,00,04,6.30
2013,10,16,00,05,6.20
2013,10,16,00,06,6.20
2013,10,16,00,07,6.20
2013,10,16,00,08,6.20
2013,10,16,00,09,6.20
2013,10,16,00,10,6.20
2013,10,16,00,11,6.20
2013,10,16,00,12,6.20
2013,10,16,00,13,6.20
2013,10,16,00,14,6.20
2013,10,16,00,15,6.20
2013,10,16,00,16,6.10
2013,10,16,00,17,6.10
2013,10,16,00,18,6.10
2013,10,16,00,19,6.10
2013,10,16,00,20,6.10
2013,10,16,00,21,6.10
2013,10,16,00,22,6.10
2013,10,16,00,23,6.10
2013,10,16,00,24,6.00
2013,10,16,00,25,6.00
2013,10,16,00,26,6.00
2013,10,16,00,27,6.00
2013,10,16,00,28,6.00
2013,10,16,00,29,6.00
2013,10,16,00,30,5.90
2013,10,16,00,31,5.90
2013,10,16,00,32,5.90
2013,10,16,00,33,5.90
2013,10,16,00,34,5.90
2013,10,16,00,35,5.90
2013,10,16,00,36,5.90
2013,10,16,00,37,5.90
2013,10,16,00,38,5.90
2013,10,16,00,39,5.90
2013,10,16,00,40,5.90
2013,10,16,00,41,5.90
2013,10,16,00,42,5.90
2013,10,16,00,43,5.90
2013,10,16,00,44,5.90
2013,10,16,00,45,5.90
2013,10,16,00,46,5.80
2013,10,16,00,47,5.80
2013,10,16,00,48,5.80
2013,10,16,00,49,5.80
2013,10,16,00,50,5.80
2013,10,16,00,51,5.80
2013,10,16,00,52,5.80
2013,10,16,00,53,5.70
2013,10,16,00,54,5.70
2013,10,16,00,55,5.70
2013,10,16,00,56,5.70
2013,10,16,00,57,5.70
2013,10,16,00,58,5.60
2013,10,16,00,59,5.60
2013,10,16,01,00,5.60
2013,10,16,01,01,5.60
2013,10,16,01,02,5.60
2013,10,16,01,03,5.60
2013,10,16,01,04,5.60
2013,10,16,01,05,5.60
2013,10,16,01,06,5.50
2013,10,16,01,07,5.50
2013,10,16,01,08,5.50
2013,10,16,01,09,5.50
2013,10,16,01,10,5.50
2013,10,16,01,11,5.50
2013,10,16,01,12,5.50
2013,10,16,01,13,5.50
2013,10,16,01,14,5.50
2013,10,16,01,15,5.50
2013,10,16,01,16,5.50
2013,10,16,01,17,5.50
2013,10,16,01,18,5.50
2013,10,16,01,19,5.50
2013,10,16,01,20,5.50
2013,10,16,01,21,5.50
2013,10,16,01,22,5.50
2013,10,16,01,23,5.50
2013,10,16,01,24,5.50
2013,10,16,01,25,5.50
2013,10,16,01,26,5.50
2013,10,16,01,27,5.50
2013,10,16,01,28,5.60
2013,10,16,01,29,5.60
2013,10,16,01,30,5.60
2013,10,16,01,31,5.60
2013,10,16,01,32,5.60
2013,10,16,01,33,5.60
2013,10,16,01,34,5.60
2013,10,16,01,35,5.60
2013,10,16,01,36,5.60
2013,10,16,01,37,5.60
2013,10,16,01,38,5.60
2013,10,16,01,39,5.60
2013,10,16,01,40,5.60
2013,10,16,01,41,5.60
2013,10,16,01,42,5.60
2013,10,16,01,43,5.60
2013,10,16,01,44,5.60
2013,10,16,01,45,5.60
2013,10,16,01,46,5.60
2013,10,16,01,47,5.60
2013,10,16,01,48,5.60
2013,10,16,01,49,5.60
2013,10,16,01,50,5.60
2013,10,16,01,51,5.60
2013,10,16,01,52,5.60
2013,10,16,01,53,5.60
2013,10,16,01,54,5.60
2013,10,16,01,55,5.50
2013,10,16,01,56,5.50
2013,10,16,01,57,5.50
2013,10,16,01,58,5.50
2013,10,16,01,59,5.50
2013,10,16,02,00,5.40
2013,10,16,02,01,5.40
2013,10,16,02,02,5.40
2013,10,16,02,03,5.40
2013,10,16,02,04,5.40
2013,10,16,02,05,5.40
2013,10,16,02,06,5.40
2013,10,16,02,07,5.40
2013,10,16,02,08,5.40
2013,10,16,02,09,5.40
2013,10,16,02,10,5.40
2013,10,16,02,11,5.40
2013,10,16,02,12,5.40
2013,10,16,02,13,5.40
2013,10,16,02,14,5.40
2013,10,16,02,15,5.40
2013,10,16,02,16,5.30
2013,10,16,02,17,5.30
2013,10,16,02,18,5.30
2013,10,16,02,19,5.30
2013,10,16,02,20,5.30
2013,10,16,02,21,5.30
2013,10,16,02,22,5.30
2013,10,16,02,23,5.30
2013,10,16,02,24,5.30
2013,10,16,02,25,5.30
2013,10,16,02,26,5.30
2013,10,16,02,27,5.30
2013,10,16,02,28,5.30
2013,10,16,02,29,5.30
2013,10,16,02,30,5.30
2013,10,16,02,31,5.30
2013,10,16,02,32,5.30
2013,10,16,02,33,5.30
2013,10,16,02,34,5.30
2013,10,16,02,35,5.30
2013,10,16,02,36,5.30
2013,10,16,02,37,5.30
2013,10,16,02,38,5.20
2013,10,16,02,39,5.20
2013,10,16,02,40,5.20
2013,10,16,02,41,5.20
2013,10,16,02,42,5.20
2013,10,16,02,43,5.20
2013,10,16,02,44,5.20
2013,10,16,02,45,5.20
2013,10,16,02,46,5.20
2013,10,16,02,47,5.20
2013,10,16,02,48,5.20
2013,10,16,02,49,5.20
2013,10,16,02,50,5.20
2013,10,16,02,51,5.20
2013,10,16,02,52,5.20
2013,10,16,02,53,5.20
2013,10,16,02,54,5.20
2013,10,16,02,55,5.10
2013,10,16,02,56,5.10
2013,10,16,02,57,5.10
2013,10,16,02,58,5.10
2013,10,16,02,59,5.10
2013,10,16,03,00,5.10
2013,10,16,03,01,5.10
2013,10,16,03,02,5.10
2013,10,16,03,03,5.00
2013,10,16,03,04,5.00
2013,10,16,03,05,5.00
2013,10,16,03,06,4.90
2013,10,16,03,07,4.90
2013,10,16,03,08,4.90
2013,10,16,03,09,4.90
2013,10,16,03,10,4.90
2013,10,16,03,11,4.90
2013,10,16,03,12,4.90
2013,10,16,03,13,4.90
2013,10,16,03,14,4.90
2013,10,16,03,15,4.80
2013,10,16,03,16,4.80
2013,10,16,03,17,4.80
2013,10,16,03,18,4.80
2013,10,16,03,19,4.80
2013,10,16,03,20,4.80
2013,10,16,03,21,4.80
2013,10,16,03,22,4.80
2013,10,16,03,23,4.80
2013,10,16,03,24,4.80
2013,10,16,03,25,4.80
2013,10,16,03,26,4.80
2013,10,16,03,27,4.80
2013,10,16,03,28,4.80
2013,10,16,03,29,4.80
2013,10,16,03,30,4.80
2013,10,16,03,31,4.80
2013,10,16,03,32,4.80
2013,10,16,03,33,4.80
2013,10,16,03,34,4.80
2013,10,16,03,35,4.80
2013,10,16,03,36,4.80
2013,10,16,03,37,4.80
2013,10,16,03,38,4.80
2013,10,16,03,39,4.80
2013,10,16,03,40,4.80
2013,10,16,03,41,4.80
2013,10,16,03,42,4.80
2013,10,16,03,43,4.80
2013,10,16,03,44,4.80
2013,10,16,03,45,4.80
2013,10,16,03,46,4.80
2013,10,16,03,47,4.80
2013,10,16,03,48,4.80
2013,10,16,03,49,4.80
2013,10,16,03,50,4.90
2013,10,16,03,51,4.90
2013,10,16,03,52,4.90
2013,10,16,03,53,4.90
2013,10,16,03,54,4.90
2013,10,16,03,55,4.90
2013,10,16,03,56,4.90
2013,10,16,03,57,4.90
2013,10,16,03,58,4.90
2013,10,16,03,59,4.90
2013,10,16,04,00,4.90
2013,10,16,04,01,4.90
2013,10,16,04,02,4.90
2013,10,16,04,03,4.90
2013,10,16,04,04,4.90
2013,10,16,04,05,4.90
2013,10,16,04,06,5.00
2013,10,16,04,07,5.00
2013,10,16,04,08,5.00
2013,10,16,04,09,5.00
2013,10,16,04,10,5.00
2013,10,16,04,11,5.00
2013,10,16,04,12,5.10
2013,10,16,04,13,5.10
2013,10,16,04,14,5.10
2013,10,16,04,15,5.10
2013,10,16,04,16,5.10
2013,10,16,04,17,5.10
2013,10,16,04,18,5.10
2013,10,16,04,19,5.10
2013,10,16,04,20,5.10
2013,10,16,04,21,5.10
2013,10,16,04,22,5.20
2013,10,16,04,23,5.20
2013,10,16,04,24,5.20
2013,10,16,04,25,5.20
2013,10,16,04,26,5.20
2013,10,16,04,27,5.20
2013,10,16,04,28,5.20
2013,10,16,04,29,5.20
2013,10,16,04,30,5.20
2013,10,16,04,31,5.20
2013,10,16,04,32,5.20
2013,10,16,04,33,5.30
2013,10,16,04,34,5.30
2013,10,16,04,35,5.30
2013,10,16,04,36,5.30
2013,10,16,04,37,5.30
2013,10,16,04,38,5.30
2013,10,16,04,39,5.30
2013,10,16,04,40,5.40
2013,10,16,04,41,5.40
2013,10,16,04,42,5.40
2013,10,16,04,43,5.40
2013,10,16,04,44,5.40
2013,10,16,04,45,5.40
2013,10,16,04,46,5.40
2013,10,16,04,47,5.40
2013,10,16,04,48,5.40
2013,10,16,04,49,5.50
2013,10,16,04,50,5.50
2013,10,16,04,51,5.50
2013,10,16,04,52,5.50
2013,10,16,04,53,5.50
2013,10,16,04,54,5.60
2013,10,16,04,55,5.60
2013,10,16,04,56,5.60
2013,10,16,04,57,5.60
2013,10,16,04,58,5.60
2013,10,16,04,59,5.60
2013,10,16,05,00,5.60
2013,10,16,05,01,5.70
2013,10,16,05,02,5.70
2013,10,16,05,03,5.70
2013,10,16,05,04,5.70
2013,10,16,05,05,5.70
2013,10,16,05,06,5.70
2013,10,16,05,07,5.70
2013,10,16,05,08,5.70
2013,10,16,05,09,5.70
2013,10,16,05,10,5.70
2013,10,16,05,11,5.80
2013,10,16,05,12,5.80
2013,10,16,05,13,5.80
2013,10,16,05,14,5.80
2013,10,16,05,15,5.80
2013,10,16,05,16,5.80
2013,10,16,05,17,5.80
2013,10,16,05,18,5.80
2013,10,16,05,19,5.80
2013,10,16,05,20,5.80
2013,10,16,05,21,5.80
2013,10,16,05,22,5.90
2013,10,16,05,23,5.90
2013,10,16,05,24,5.90
2013,10,16,05,25,5.90
2013,10,16,05,26,5.90
2013,10,16,05,27,5.90
2013,10,16,05,28,5.90
2013,10,16,05,29,5.90
2013,10,16,05,30,5.90
2013,10,16,05,31,5.90
2013,10,16,05,32,6.00
2013,10,16,05,33,6.00
2013,10,16,05,34,6.00
2013,10,16,05,35,6.00
2013,10,16,05,36,6.10
2013,10,16,05,37,6.10
2013,10,16,05,38,6.10
2013,10,16,05,39,6.10
2013,10,16,05,40,6.10
2013,10,16,05,41,6.10
2013,10,16,05,42,6.10
2013,10,16,05,43,6.20
2013,10,16,05,44,6.20
2013,10,16,05,45,6.20
2013,10,16,05,46,6.20
2013,10,16,05,47,6.20
2013,10,16,05,48,6.20
2013,10,16,05,49,6.20
2013,10,16,05,50,6.30
2013,10,16,05,51,6.30
2013,10,16,05,52,6.30
2013,10,16,05,53,6.30
2013,10,16,05,54,6.30
2013,10,16,05,55,6.30
2013,10,16,05,56,6.30
2013,10,16,05,57,6.30
2013,10,16,05,58,6.30
2013,10,16,05,59,6.30
2013,10,16,06,00,6.30
2013,10,16,06,01,6.40
2013,10,16,06,02,6.40
2013,10,16,06,03,6.40
2013,10,16,06,04,6.40
2013,10,16,06,05,6.40
2013,10,16,06,06,6.40
2013,10,16,06,07,6.40
2013,10,16,06,08,6.40
2013,10,16,06,09,6.40
2013,10,16,06,10,6.40
2013,10,16,06,11,6.40
2013,10,16,06,12,6.50
2013,10,16,06,13,6.50
2013,10,16,06,14,6.50
2013,10,16,06,15,6.50
2013,10,16,06,16,6.50
2013,10,16,06,17,6.60
2013,10,16,06,18,6.60
2013,10,16,06,19,6.60
2013,10,16,06,20,6.60
2013,10,16,06,21,6.60
2013,10,16,06,22,6.60
2013,10,16,06,23,6.60
2013,10,16,06,24,6.60
2013,10,16,06,25,6.70
2013,10,16,06,26,6.70
2013,10,16,06,27,6.70
2013,10,16,06,28,6.70
2013,10,16,06,29,6.70
2013,10,16,06,30,6.80
2013,10,16,06,31,6.80
2013,10,16,06,32,6.80
2013,10,16,06,33,6.80
2013,10,16,06,34,6.80
2013,10,16,06,35,6.80
2013,10,16,06,36,6.80
2013,10,16,06,37,6.80
2013,10,16,06,38,6.80
2013,10,16,06,39,6.80
2013,10,16,06,40,6.80
2013,10,16,06,41,6.80
2013,10,16,06,42,6.90
2013,10,16,06,43,6.90
2013,10,16,06,44,6.90
2013,10,16,06,45,6.90
2013,10,16,06,46,6.90
2013,10,16,06,47,6.90
2013,10,16,06,48,6.90
2013,10,16,06,49,6.90
2013,10,16,06,50,6.90
2013,10,16,06,51,6.90
2013,10,16,06,52,6.90
2013,10,16,06,53,6.90
2013,10,16,06,54,7.00
2013,10,16,06,55,7.00
2013,10,16,06,56,7.00
2013,10,16,06,57,7.00
2013,10,16,06,58,7.00
2013,10,16,06,59,7.10
2013,10,16,07,00,7.10
2013,10,16,07,01,7.10
2013,10,16,07,02,7.10
2013,10,16,07,03,7.10
2013,10,16,07,04,7.10
2013,10,16,07,05,7.10
2013,10,16,07,06,7.10
2013,10,16,07,07,7.10
2013,10,16,07,08,7.10
2013,10,16,07,09,7.10
2013,10,16,07,10,7.10
2013,10,16,07,11,7.10
2013,10,16,07,12,7.10
2013,10,16,07,13,7.20
2013,10,16,07,14,7.20
2013,10,16,07,15,7.20
2013,10,16,07,16,7.20
2013,10,16,07,17,7.20
2013,10,16,07,18,7.20
2013,10,16,07,19,7.20
2013,10,16,07,20,7.20
2013,10,16,07,21,7.20
2013,10,16,07,22,7.20
2013,10,16,07,23,7.20
2013,10,16,07,24,7.20
2013,10,16,07,25,7.20
2013,10,16,07,26,7.20
2013,10,16,07,27,7.20
2013,10,16,07,28,7.20
2013,10,16,07,29,7.20
2013,10,16,07,30,7.30
2013,10,16,07,31,7.30
2013,10,16,07,32,7.30
2013,10,16,07,33,7.30
2013,10,16,07,34,7.30
2013,10,16,07,35,7.30
2013,10,16,07,36,7.30
2013,10,16,07,37,7.30
2013,10,16,07,38,7.30
2013,10,16,07,39,7.30
2013,10,16,07,40,7.30
2013,10,16,07,41,7.30
2013,10,16,07,42,7.30
2013,10,16,07,43,7.40
2013,10,16,07,44,7.40
2013,10,16,07,45,7.40
2013,10,16,07,46,7.40
2013,10,16,07,47,7.40
2013,10,16,07,48,7.40
2013,10,16,07,49,7.40
2013,10,16,07,50,7.40
2013,10,16,07,51,7.50
2013,10,16,07,52,7.50
2013,10,16,07,53,7.50
2013,10,16,07,54,7.50
2013,10,16,07,55,7.60
2013,10,16,07,56,7.60
2013,10,16,07,57,7.60
2013,10,16,07,58,7.60
2013,10,16,07,59,7.60
2013,10,16,08,00,7.70
2013,10,16,08,01,7.70
2013,10,16,08,02,7.70
2013,10,16,08,03,7.70
2013,10,16,08,04,7.70
2013,10,16,08,05,7.70
2013,10,16,08,06,7.70
2013,10,16,08,07,7.70
2013,10,16,08,08,7.70
2013,10,16,08,09,7.70
2013,10,16,08,10,7.70
2013,10,16,08,11,7.70
2013,10,16,08,12,7.60
2013,10,16,08,13,7.70
2013,10,16,08,14,7.60
2013,10,16,08,15,7.60
2013,10,16,08,16,7.60
2013,10,16,08,17,7.60
2013,10,16,08,18,7.50
2013,10,16,08,19,7.50
2013,10,16,08,20,7.50
2013,10,16,08,21,7.50
2013,10,16,08,22,7.50
2013,10,16,08,23,7.50
2013,10,16,08,24,7.60
2013,10,16,08,25,7.60
2013,10,16,08,26,7.60
2013,10,16,08,27,7.60
2013,10,16,08,28,7.60
2013,10,16,08,29,7.60
2013,10,16,08,30,7.70
2013,10,16,08,31,7.70
2013,10,16,08,32,7.70
2013,10,16,08,33,7.70
2013,10,16,08,34,7.70
2013,10,16,08,35,7.70
2013,10,16,08,36,7.70
2013,10,16,08,37,7.70
2013,10,16,08,38,7.80
2013,10,16,08,39,7.80
2013,10,16,08,40,7.80
2013,10,16,08,41,7.80
2013,10,16,08,42,7.80
2013,10,16,08,43,7.80
2013,10,16,08,44,7.80
2013,10,16,08,45,7.80
2013,10,16,08,46,7.80
2013,10,16,08,47,7.80
2013,10,16,08,48,7.80
2013,10,16,08,49,7.80
2013,10,16,08,50,7.80
2013,10,16,08,51,7.80
2013,10,16,08,52,7.80
2013,10,16,08,53,7.80
2013,10,16,08,54,7.80
2013,10,16,08,55,7.90
2013,10,16,08,56,7.90
2013,10,16,08,57,7.90
2013,10,16,08,58,7.90
2013,10,16,08,59,7.90
2013,10,16,09,00,7.90
2013,10,16,09,01,7.90
2013,10,16,09,02,8.00
2013,10,16,09,03,8.00
2013,10,16,09,04,8.00
2013,10,16,09,05,8.00
2013,10,16,09,06,8.00
2013,10,16,09,07,8.00
2013,10,16,09,08,8.00
2013,10,16,09,09,8.00
2013,10,16,09,10,8.00
2013,10,16,09,11,8.10
2013,10,16,09,12,8.10
2013,10,16,09,13,8.10
2013,10,16,09,14,8.10
2013,10,16,09,15,8.10
2013,10,16,09,16,8.20
2013,10,16,09,17,8.20
2013,10,16,09,18,8.20
2013,10,16,09,19,8.20
2013,10,16,09,20,8.20
2013,10,16,09,21,8.20
2013,10,16,09,22,8.20
2013,10,16,09,23,8.20
2013,10,16,09,24,8.20
2013,10,16,09,25,8.20
2013,10,16,09,26,8.20
2013,10,16,09,27,8.30
2013,10,16,09,28,8.30
2013,10,16,09,29,8.30
2013,10,16,09,30,8.30
2013,10,16,09,31,8.30
2013,10,16,09,32,8.30
2013,10,16,09,33,8.30
2013,10,16,09,34,8.20
2013,10,16,09,35,8.20
2013,10,16,09,36,8.20
2013,10,16,09,37,8.30
2013,10,16,09,38,8.30
2013,10,16,09,39,8.30
2013,10,16,09,40,8.30
2013,10,16,09,41,8.30
2013,10,16,09,42,8.30
2013,10,16,09,43,8.30
2013,10,16,09,44,8.30
2013,10,16,09,45,8.30
2013,10,16,09,46,8.30
2013,10,16,09,47,8.30
2013,10,16,09,48,8.30
2013,10,16,09,49,8.30
2013,10,16,09,50,8.30
2013,10,16,09,51,8.30
2013,10,16,09,52,8.30
2013,10,16,09,53,8.30
2013,10,16,09,54,8.30
2013,10,16,09,55,8.30
2013,10,16,09,56,8.30
2013,10,16,09,57,8.30
2013,10,16,09,58,8.30
2013,10,16,09,59,8.30
2013,10,16,10,00,8.40
2013,10,16,10,01,8.40
2013,10,16,10,02,8.40
2013,10,16,10,03,8.40
2013,10,16,10,04,8.50
2013,10,16,10,05,8.50
2013,10,16,10,06,8.50
2013,10,16,10,07,8.50
2013,10,16,10,08,8.60
2013,10,16,10,09,8.60
2013,10,16,10,10,8.60
2013,10,16,10,11,8.60
2013,10,16,10,12,8.60
2013,10,16,10,13,8.60
2013,10,16,10,14,8.60
2013,10,16,10,15,8.60
2013,10,16,10,16,8.60
2013,10,16,10,17,8.60
2013,10,16,10,18,8.60
2013,10,16,10,19,8.60
2013,10,16,10,20,8.60
2013,10,16,10,21,8.60
2013,10,16,10,22,8.50
2013,10,16,10,23,8.50
2013,10,16,10,24,8.50
2013,10,16,10,25,8.60
2013,10,16,10,26,8.60
2013,10,16,10,27,8.50
2013,10,16,10,28,8.60
2013,10,16,10,29,8.50
2013,10,16,10,30,8.60
2013,10,16,10,31,8.60
2013,10,16,10,32,8.60
2013,10,16,10,33,8.60
2013,10,16,10,34,8.60
2013,10,16,10,35,8.60
2013,10,16,10,36,8.60
2013,10,16,10,37,8.60
2013,10,16,10,38,8.60
2013,10,16,10,39,8.60
2013,10,16,10,40,8.70
2013,10,16,10,41,8.70
2013,10,16,10,42,8.70
2013,10,16,10,43,8.70
2013,10,16,10,44,8.70
2013,10,16,10,45,8.70
2013,10,16,10,46,8.70
2013,10,16,10,47,8.70
2013,10,16,10,48,8.70
2013,10,16,10,49,8.60
2013,10,16,10,50,8.60
2013,10,16,10,51,8.70
2013,10,16,10,52,8.70
2013,10,16,10,53,8.70
2013,10,16,10,54,8.80
2013,10,16,10,55,8.80
2013,10,16,10,56,8.80
2013,10,16,10,57,8.80
2013,10,16,10,58,8.80
2013,10,16,10,59,8.80
2013,10,16,11,00,8.90
2013,10,16,11,01,8.90
2013,10,16,11,02,8.90
2013,10,16,11,03,9.00
2013,10,16,11,04,9.00
2013,10,16,11,05,9.10
2013,10,16,11,06,9.10
2013,10,16,11,07,9.10
2013,10,16,11,08,9.10
2013,10,16,11,09,9.10
2013,10,16,11,10,9.20
2013,10,16,11,11,9.20
2013,10,16,11,12,9.20
2013,10,16,11,13,9.20
2013,10,16,11,14,9.20
2013,10,16,11,15,9.20
2013,10,16,11,16,9.20
2013,10,16,11,17,9.20
2013,10,16,11,18,9.20
2013,10,16,11,19,9.20
2013,10,16,11,20,9.20
2013,10,16,11,21,9.20
2013,10,16,11,22,9.20
2013,10,16,11,23,9.30
2013,10,16,11,24,9.30
2013,10,16,11,25,9.40
2013,10,16,11,26,9.40
2013,10,16,11,27,9.40
2013,10,16,11,28,9.40
2013,10,16,11,29,9.40
2013,10,16,11,30,9.40
2013,10,16,11,31,9.40
2013,10,16,11,32,9.40
2013,10,16,11,33,9.40
2013,10,16,11,34,9.40
2013,10,16,11,35,9.40
2013,10,16,11,36,9.40
2013,10,16,11,37,9.40
2013,10,16,11,38,9.40
2013,10,16,11,39,9.30
2013,10,16,11,40,9.30
2013,10,16,11,41,9.30
2013,10,16,11,42,9.30
2013,10,16,11,43,9.40
2013,10,16,11,44,9.40
2013,10,16,11,45,9.40
2013,10,16,11,46,9.40
2013,10,16,11,47,9.40
2013,10,16,11,48,9.40
2013,10,16,11,49,9.40
2013,10,16,11,50,9.40
2013,10,16,11,51,9.40
2013,10,16,11,52,9.40
2013,10,16,11,53,9.40
2013,10,16,11,54,9.50
2013,10,16,11,55,9.50
2013,10,16,11,56,9.50
2013,10,16,11,57,9.50
2013,10,16,11,58,9.60
2013,10,16,11,59,9.60
2013,10,16,12,00,9.60
2013,10,16,12,01,9.70
2013,10,16,12,02,9.80
2013,10,16,12,03,9.80
2013,10,16,12,04,9.90
2013,10,16,12,05,9.90
2013,10,16,12,06,10.00
2013,10,16,12,07,10.00
2013,10,16,12,08,10.00
2013,10,16,12,09,10.00
2013,10,16,12,10,10.00
2013,10,16,12,11,10.10
2013,10,16,12,12,10.10
2013,10,16,12,13,10.10
2013,10,16,12,14,10.20
2013,10,16,12,15,10.20
2013,10,16,12,16,10.30
2013,10,16,12,17,10.30
2013,10,16,12,18,10.40
2013,10,16,12,19,10.50
2013,10,16,12,20,10.50
2013,10,16,12,21,10.60
2013,10,16,12,22,10.70
2013,10,16,12,23,10.70
2013,10,16,12,24,10.80
2013,10,16,12,25,10.80
2013,10,16,12,26,10.90
2013,10,16,12,27,11.00
2013,10,16,12,28,11.10
2013,10,16,12,29,11.20
2013,10,16,12,30,11.30
2013,10,16,12,31,11.40
2013,10,16,12,32,11.40
2013,10,16,12,33,11.50
2013,10,16,12,34,11.60
2013,10,16,12,35,11.60
2013,10,16,12,36,11.70
2013,10,16,12,37,11.70
2013,10,16,12,38,11.80
2013,10,16,12,39,11.80
2013,10,16,12,40,11.90
2013,10,16,12,41,11.90
2013,10,16,12,42,12.00
2013,10,16,12,43,12.00
2013,10,16,12,44,12.00
2013,10,16,12,45,12.10
2013,10,16,12,46,12.10
2013,10,16,12,47,12.10
2013,10,16,12,48,12.20
2013,10,16,12,49,12.20
2013,10,16,12,50,12.20
2013,10,16,12,51,12.30
2013,10,16,12,52,12.30
2013,10,16,12,53,12.40
2013,10,16,12,54,12.40
2013,10,16,12,55,12.50
2013,10,16,12,56,12.60
2013,10,16,12,57,12.60
2013,10,16,12,58,12.70
2013,10,16,12,59,12.70
2013,10,16,13,00,12.80
2013,10,16,13,01,12.90
2013,10,16,13,02,12.90
2013,10,16,13,03,12.90
2013,10,16,13,04,13.00
2013,10,16,13,05,13.00
2013,10,16,13,06,13.10
2013,10,16,13,07,13.20
2013,10,16,13,08,13.30
2013,10,16,13,09,13.40
2013,10,16,13,10,13.50
2013,10,16,13,11,13.70
2013,10,16,13,12,13.80
2013,10,16,13,13,13.90
2013,10,16,13,14,14.00
2013,10,16,13,15,14.10
2013,10,16,13,16,14.10
2013,10,16,13,17,14.20
2013,10,16,13,18,14.30
2013,10,16,13,19,14.30
2013,10,16,13,20,14.40
2013,10,16,13,21,14.40
2013,10,16,13,22,14.50
2013,10,16,13,23,14.50
2013,10,16,13,24,14.60
2013,10,16,13,25,14.60
2013,10,16,13,26,14.70
2013,10,16,13,27,14.80
2013,10,16,13,28,14.90
2013,10,16,13,29,15.00
2013,10,16,13,30,15.00
2013,10,16,13,31,15.00
2013,10,16,13,32,15.10
2013,10,16,13,33,15.20
2013,10,16,13,34,15.20
2013,10,16,13,35,15.30
2013,10,16,13,36,15.30
2013,10,16,13,37,15.20
2013,10,16,13,38,15.20
2013,10,16,13,39,15.20
2013,10,16,13,40,15.20
2013,10,16,13,41,15.20
2013,10,16,13,42,15.30
2013,10,16,13,43,15.30
2013,10,16,13,44,15.40
2013,10,16,13,45,15.40
2013,10,16,13,46,15.50
2013,10,16,13,47,15.50
2013,10,16,13,48,15.60
2013,10,16,13,49,15.60
2013,10,16,13,50,15.70
2013,10,16,13,51,15.70
2013,10,16,13,52,15.80
2013,10,16,13,53,15.90
2013,10,16,13,54,15.90
2013,10,16,13,55,15.90
2013,10,16,13,56,16.00
2013,10,16,13,57,16.00
2013,10,16,13,58,16.10
2013,10,16,13,59,16.20
2013,10,16,14,00,16.20
2013,10,16,14,01,16.30
2013,10,16,14,02,16.30
2013,10,16,14,03,16.30
2013,10,16,14,04,16.20
2013,10,16,14,05,16.20
2013,10,16,14,06,16.20
2013,10,16,14,07,16.30
2013,10,16,14,08,16.30
2013,10,16,14,09,16.30
2013,10,16,14,10,16.30
2013,10,16,14,11,16.30
2013,10,16,14,12,16.40
2013,10,16,14,13,16.50
2013,10,16,14,14,16.50
2013,10,16,14,15,16.60
2013,10,16,14,16,16.60
2013,10,16,14,17,16.60
2013,10,16,14,18,16.70
2013,10,16,14,19,16.80
2013,10,16,14,20,16.80
2013,10,16,14,21,16.90
2013,10,16,14,22,17.00
2013,10,16,14,23,17.00
2013,10,16,14,24,17.10
2013,10,16,14,25,17.10
2013,10,16,14,26,17.10
2013,10,16,14,27,17.10
2013,10,16,14,28,17.10
2013,10,16,14,29,17.10
2013,10,16,14,30,17.20
2013,10,16,14,31,17.20
2013,10,16,14,32,17.20
2013,10,16,14,33,17.30
2013,10,16,14,34,17.30
2013,10,16,14,35,17.40
2013,10,16,14,36,17.40
2013,10,16,14,37,17.40
2013,10,16,14,38,17.40
2013,10,16,14,39,17.40
2013,10,16,14,40,17.40
2013,10,16,14,41,17.40
2013,10,16,14,42,17.40
2013,10,16,14,43,17.50
2013,10,16,14,44,17.50
2013,10,16,14,45,17.50
2013,10,16,14,46,17.40
2013,10,16,14,47,17.50
2013,10,16,14,48,17.40
2013,10,16,14,49,17.40
2013,10,16,14,50,17.40
2013,10,16,14,51,17.40
2013,10,16,14,52,17.40
2013,10,16,14,53,17.40
2013,10,16,14,54,17.30
2013,10,16,14,55,17.30
2013,10,16,14,56,17.30
2013,10,16,14,57,17.30
2013,10,16,14,58,17.30
2013,10,16,14,59,17.20
2013,10,16,15,00,17.20
2013,10,16,15,01,17.20
2013,10,16,15,02,17.20
2013,10,16,15,03,17.20
2013,10,16,15,04,17.20
2013,10,16,15,05,17.20
2013,10,16,15,06,17.20
2013,10,16,15,07,17.10
2013,10,16,15,08,17.10
2013,10,16,15,09,17.10
2013,10,16,15,10,17.10
2013,10,16,15,11,17.10
2013,10,16,15,12,17.10
2013,10,16,15,13,17.10
2013,10,16,15,14,17.20
2013,10,16,15,15,17.20
2013,10,16,15,16,17.20
2013,10,16,15,17,17.20
2013,10,16,15,18,17.20
2013,10,16,15,19,17.20
2013,10,16,15,20,17.20
2013,10,16,15,21,17.20
2013,10,16,15,22,17.20
2013,10,16,15,23,17.20
2013,10,16,15,24,17.20
2013,10,16,15,25,17.20
2013,10,16,15,26,17.20
2013,10,16,15,27,17.20
2013,10,16,15,28,17.20
2013,10,16,15,29,17.20
2013,10,16,15,30,17.20
2013,10,16,15,31,17.20
2013,10,16,15,32,17.20
2013,10,16,15,33,17.30
2013,10,16,15,34,17.30
2013,10,16,15,35,17.30
2013,10,16,15,36,17.40
2013,10,16,15,37,17.40
2013,10,16,15,38,17.40
2013,10,16,15,39,17.50
2013,10,16,15,40,17.60
2013,10,16,15,41,17.50
2013,10,16,15,42,17.50
2013,10,16,15,43,17.40
2013,10,16,15,44,17.40
2013,10,16,15,45,17.40
2013,10,16,15,46,17.40
2013,10,16,15,47,17.30
2013,10,16,15,48,17.30
2013,10,16,15,49,17.30
2013,10,16,15,50,17.30
2013,10,16,15,51,17.20
2013,10,16,15,52,17.20
2013,10,16,15,53,17.20
2013,10,16,15,54,17.20
2013,10,16,15,55,17.10
2013,10,16,15,56,17.10
2013,10,16,15,57,17.10
2013,10,16,15,58,17.00
2013,10,16,15,59,17.00
2013,10,16,16,00,16.90
2013,10,16,16,01,16.90
2013,10,16,16,02,16.80
2013,10,16,16,03,16.80
2013,10,16,16,04,16.80
2013,10,16,16,05,16.80
2013,10,16,16,06,16.80
2013,10,16,16,07,16.80
2013,10,16,16,08,16.80
2013,10,16,16,09,16.80
2013,10,16,16,10,16.80
2013,10,16,16,11,16.80
2013,10,16,16,12,16.80
2013,10,16,16,13,16.80
2013,10,16,16,14,16.90
2013,10,16,16,15,16.90
2013,10,16,16,16,16.90
2013,10,16,16,17,16.90
2013,10,16,16,18,16.80
2013,10,16,16,19,16.80
2013,10,16,16,20,16.80
2013,10,16,16,21,16.80
2013,10,16,16,22,16.80
2013,10,16,16,23,16.70
2013,10,16,16,24,16.70
2013,10,16,16,25,16.70
2013,10,16,16,26,16.70
2013,10,16,16,27,16.70
2013,10,16,16,28,16.70
2013,10,16,16,29,16.70
2013,10,16,16,30,16.70
2013,10,16,16,31,16.70
2013,10,16,16,32,16.70
2013,10,16,16,33,16.60
2013,10,16,16,34,16.60
2013,10,16,16,35,16.60
2013,10,16,16,36,16.60
2013,10,16,16,37,16.60
2013,10,16,16,38,16.50
2013,10,16,16,39,16.50
2013,10,16,16,40,16.50
2013,10,16,16,41,16.50
2013,10,16,16,42,16.40
2013,10,16,16,43,16.50
2013,10,16,16,44,16.50
2013,10,16,16,45,16.50
2013,10,16,16,46,16.50
2013,10,16,16,47,16.50
2013,10,16,16,48,16.40
2013,10,16,16,49,16.40
2013,10,16,16,50,16.40
2013,10,16,16,51,16.40
2013,10,16,16,52,16.40
2013,10,16,16,53,16.40
2013,10,16,16,54,16.40
2013,10,16,16,55,16.30
2013,10,16,16,56,16.30
2013,10,16,16,57,16.30
2013,10,16,16,58,16.30
2013,10,16,16,59,16.30
2013,10,16,17,00,16.20
2013,10,16,17,01,16.20
2013,10,16,17,02,16.20
2013,10,16,17,03,16.20
2013,10,16,17,04,16.20
2013,10,16,17,05,16.10
2013,10,16,17,06,16.10
2013,10,16,17,07,16.10
2013,10,16,17,08,16.10
2013,10,16,17,09,16.00
2013,10,16,17,10,16.00
2013,10,16,17,11,15.90
2013,10,16,17,12,15.90
2013,10,16,17,13,15.90
2013,10,16,17,14,15.80
2013,10,16,17,15,15.80
2013,10,16,17,16,15.80
2013,10,16,17,17,15.70
2013,10,16,17,18,15.70
2013,10,16,17,19,15.70
2013,10,16,17,20,15.60
2013,10,16,17,21,15.60
2013,10,16,17,22,15.60
2013,10,16,17,23,15.50
2013,10,16,17,24,15.50
2013,10,16,17,25,15.40
2013,10,16,17,26,15.40
2013,10,16,17,27,15.30
2013,10,16,17,28,15.30
2013,10,16,17,29,15.30
2013,10,16,17,30,15.30
2013,10,16,17,31,15.20
2013,10,16,17,32,15.20
2013,10,16,17,33,15.10
2013,10,16,17,34,15.00
2013,10,16,17,35,15.00
2013,10,16,17,36,15.00
2013,10,16,17,37,15.00
2013,10,16,17,38,15.00
2013,10,16,17,39,15.00
2013,10,16,17,40,15.00
2013,10,16,17,41,15.00
2013,10,16,17,42,14.90
2013,10,16,17,43,14.80
2013,10,16,17,44,14.80
2013,10,16,17,45,14.80
2013,10,16,17,46,14.70
2013,10,16,17,47,14.70
2013,10,16,17,48,14.60
2013,10,16,17,49,14.60
2013,10,16,17,50,14.50
2013,10,16,17,51,14.50